Location: Mesa
(33.4220°N, 111.8220°W)
Time: 16:57:31
(UTC-07:00)

Hubble Space Telescope - Visible Passes

Search period start: 22 November 2019 00:00
Search period end: 02 December 2019 00:00
Orbit: 536 x 540 km, 28.5° (Epoch: 21 November)

Date Brightness Start Highest point End Pass type
(mag) Time Alt. Az. Time Alt. Az. Time Alt. Az.
22 Nov 1.7 18:29:12 10° WSW 18:33:05 40° S 18:35:27 20° ESE visible
22 Nov 3.8 20:10:11 10° WSW 20:10:47 13° WSW 20:10:47 13° WSW visible
23 Nov 1.7 18:18:33 10° WSW 18:22:27 41° S 18:25:30 15° ESE visible
23 Nov 3.5 19:59:38 10° WSW 20:00:51 17° WSW 20:00:51 17° WSW visible
24 Nov 1.7 18:07:56 10° WSW 18:11:49 41° S 18:15:37 11° ESE visible
24 Nov 3.1 19:49:07 10° WSW 19:50:58 21° SW 19:50:58 21° SW visible
25 Nov 1.8 17:57:19 10° WSW 18:01:12 40° S 18:05:05 10° ESE visible
25 Nov 2.8 19:38:38 10° WSW 19:41:09 23° SW 19:41:09 23° SW visible
26 Nov 2.0 17:46:43 10° WSW 17:50:34 39° S 17:54:24 10° ESE visible
26 Nov 2.8 19:28:12 10° WSW 19:31:21 21° SSW 19:31:25 21° SSW visible
27 Nov 3.0 19:17:51 10° WSW 19:20:40 18° SSW 19:21:48 16° S visible
28 Nov 3.4 19:07:39 10° WSW 19:09:59 15° SSW 19:12:18 10° SSE visible
29 Nov 3.6 18:57:45 10° SW 18:59:17 12° SSW 19:00:48 10° S visible
